sat.trackr.live / text

‹ back to catalog

KUIPER-00269

NORAD 68587 · 2026-072Q

PAYLOAD ACTIVE UNKNOWN

§ Identity

Operator
Country
US
Launch date
2026-04-04
Launch site
AFETR
Launch vehicle
Mass (kg)
RCS (m²)

External: N2YO · Heavens-Above · Gunter

§ Orbital elements

Epoch: 2026-09-19T23:50:25.535040Z

Period
97.30 min
Inclination
51.8998°
Eccentricity
0.0001108
Mean motion
14.79939194 rev/d
Perigee alt
628.7 km
Apogee alt
630.3 km
Semi-major
7,007.7 km
B*
2.7050e-4
RAAN
113.9254°
Arg perigee
106.9124°
Mean anomaly
253.1960°
Rev number
2,547

§ Raw data

KUIPER-002691 68587U 26072Q   26262.99335110  .00001842  00000+0  27050-3 0  99912 68587  51.8998 113.9254 0001108 106.9124 253.1960 14.79939194 25474

JSON: /api/v1/satellites/68587 · /tle

For live sub-satellite position, see the globe view (requires WebGL).

§ Visibility from observer

Set your observer location to see the next 7 days of passes ≥ 10°. The values pass through the URL so the page stays shareable.

No JS? Fill the form by hand. The geolocation button needs JavaScript.